GW7204 Weather Reports


Display with metric or nautical units.
time (UTC)temp
F
wind
direction
speed
MPH
gust
MPH
rain 1hr
in
rain 24hr
in
rain mn
in
humidity
%
barometer
mb
20260507030351 51 115 0.0 0.0 0.00 0.00 0.62 66 1014.2
20260507025726 52 125 0.0 0.0 0.00 0.00 0.62 68 1014.2
20260507024540 52 86 0.0 0.0 0.00 0.00 0.62 69 1014.2
20260507023911 52 162 0.0 0.0 0.00 0.00 0.62 65 1014.2
20260507023354 53 130 0.0 0.0 0.00 0.00 0.62 64 1014.2
20260507022710 53 319 0.0 0.0 0.00 0.00 0.62 64 1013.8
20260507022117 53 133 0.0 0.0 0.00 0.00 0.62 63 1014.2
20260507021541 53 145 0.0 0.0 0.00 0.00 0.62 63 1013.8
20260507020939 53 133 0.0 0.0 0.00 0.00 0.62 65 1013.8
20260507020318 53 141 0.0 0.0 0.00 0.00 0.62 64 1013.8
20260507015728 53 283 1.0 1.0 0.00 0.00 0.62 62 1013.5
20260507015145 53 218 1.0 1.0 0.00 0.00 0.62 63 1013.5
20260507014513 54 237 2.0 2.0 0.00 0.00 0.62 62 1013.2
20260507013930 54 257 2.0 3.0 0.00 0.00 0.62 62 1013.2
20260507013354 54 215 0.0 0.0 0.00 0.00 0.62 62 1013.5
20260507012144 54 256 1.0 1.0 0.00 0.00 0.62 62 1013.5
20260507011532 54 131 0.0 0.0 0.00 0.00 0.62 61 1013.5
20260507010953 54 107 0.0 0.0 0.00 0.00 0.62 59 1013.2
20260507010329 54 80 1.0 1.0 0.00 0.00 0.62 59 1013.2
20260507005135 55 230 1.0 1.0 0.00 0.00 0.62 58 1013.2
20260507004543 55 58 1.0 1.0 0.00 0.00 0.62 58 1012.8
20260507003345 55 50 2.0 2.0 0.00 0.00 0.62 57 1012.8
20260507002729 55 116 0.0 1.0 0.00 0.00 0.62 56 1012.8
20260507001548 56 229 1.0 2.0 0.00 0.00 0.62 56 1012.5
20260507000314 56 118 0.0 1.0 0.00 0.00 0.62 55 1012.1
20260506235728 56 29 1.0 1.0 0.00 0.00 0.62 56 1012.1
20260506235133 56 247 2.0 2.0 0.00 0.00 0.62 57 1011.8
20260506234523 56 248 1.0 2.0 0.00 0.00 0.62 58 1011.8
20260506233939 57 43 2.0 2.0 0.00 0.00 0.62 56 1012.1
20260506233351 57 88 0.0 0.0 0.00 0.00 0.62 57 1012.1
20260506232743 57 28 2.0 3.0 0.00 0.00 0.62 55 1011.8
20260506232149 58 14 2.0 3.0 0.00 0.00 0.62 56 1011.8
20260506231525 58 161 2.0 3.0 0.00 0.00 0.62 54 1011.8
20260506230932 58 20 2.0 2.0 0.00 0.00 0.62 55 1012.1
20260506230329 58 48 1.0 2.0 0.00 0.00 0.62 55 1012.1
20260506225711 58 85 0.0 0.0 0.00 0.00 0.62 54 1012.5
20260506225110 58 119 1.0 1.0 0.00 0.00 0.62 54 1012.1
20260506224517 58 27 2.0 2.0 0.00 0.00 0.62 55 1012.1
20260506223932 58 159 1.0 1.0 0.00 0.00 0.62 54 1012.1
20260506223327 58 292 1.0 2.0 0.00 0.00 0.62 54 1012.5
20260506222722 59 112 0.0 1.0 0.00 0.00 0.62 54 1012.5
20260506222144 59 40 2.0 2.0 0.00 0.00 0.62 54 1012.5
20260506221515 59 128 0.0 1.0 0.00 0.00 0.62 55 1012.5
20260506220917 59 136 1.0 1.0 0.00 0.00 0.62 54 1012.1
20260506220343 59 25 3.0 3.0 0.00 0.00 0.62 50 1012.1
20260506215738 60 55 0.0 1.0 0.00 0.00 0.62 51 1011.8
20260506215141 60 68 2.0 2.0 0.00 0.00 0.62 49 1011.8
20260506214549 60 212 3.0 4.0 0.00 0.00 0.62 48 1011.8
20260506213317 60 10 2.0 3.0 0.00 0.00 0.62 48 1011.5
20260506212713 61 31 2.0 2.0 0.00 0.00 0.62 49 1011.5
20260506212127 61 92 2.0 2.0 0.00 0.00 0.62 48 1011.1
20260506210929 61 188 2.0 3.0 0.00 0.00 0.62 49 1011.5
20260506210347 62 30 2.0 2.0 0.00 0.00 0.62 47 1011.5
20260506204531 62 272 2.0 4.0 0.00 0.00 0.62 51 1011.1
20260506203311 62 36 1.0 1.0 0.00 0.00 0.62 50 1011.5
20260506202713 62 259 1.0 2.0 0.00 0.00 0.62 46 1011.5
20260506201533 64 339 2.0 3.0 0.00 0.00 0.62 40 1011.1
20260506200314 64 224 4.0 6.0 0.00 0.00 0.62 43 1011.1
20260506195752 63 359 2.0 3.0 0.00 0.00 0.62 44 1011.1
20260506194536 63 151 0.0 1.0 0.00 0.00 0.62 45 1010.8
20260506193953 64 11 1.0 4.0 0.00 0.00 0.62 47 1010.8
20260506193353 64 165 3.0 4.0 0.00 0.00 0.62 46 1011.1
20260506192743 61 60 2.0 4.0 0.00 0.00 0.62 50 1010.8
20260506192132 62 25 2.0 4.0 0.00 0.00 0.62 49 1011.1
20260506191543 62 16 3.0 3.0 0.00 0.00 0.62 49 1010.8
20260506190913 62 248 3.0 4.0 0.00 0.00 0.62 50 1010.8
20260506190340 60 162 2.0 2.0 0.00 0.00 0.62 57 1010.8
20260506185719 61 25 2.0 3.0 0.00 0.00 0.62 53 1011.1
20260506184536 61 97 1.0 1.0 0.00 0.00 0.62 55 1011.1
20260506183920 62 214 2.0 3.0 0.00 0.00 0.62 52 1011.1
20260506183330 61 18 3.0 4.0 0.00 0.00 0.62 55 1011.1
20260506182740 61 290 6.0 7.0 0.00 0.00 0.62 53 1011.1
20260506181541 60 330 3.0 3.0 0.00 0.00 0.62 56 1011.1
20260506180936 61 192 2.0 3.0 0.00 0.00 0.62 54 1011.1
20260506180354 60 325 3.0 3.0 0.00 0.00 0.62 58 1011.5
20260506175748 60 38 1.0 3.0 0.00 0.00 0.62 65 1010.8
20260506175127 59 159 2.0 3.0 0.00 0.00 0.62 64 1011.1
20260506174531 60 277 5.0 7.0 0.00 0.00 0.62 64 1011.5
20260506173943 60 76 0.0 0.0 0.00 0.00 0.62 62 1011.1
20260506173318 60 29 4.0 6.0 0.00 0.00 0.62 66 1011.1
20260506172712 59 202 3.0 4.0 0.00 0.00 0.62 66 1011.1
20260506172141 60 245 2.0 2.0 0.00 0.00 0.62 65 1011.1
20260506170953 57 24 4.0 4.0 0.00 0.00 0.62 70 1011.5
20260506170310 58 285 3.0 4.0 0.00 0.00 0.62 72 1011.5
20260506163946 56 23 2.0 3.0 0.00 0.00 0.62 71 1011.8
20260506163334 55 16 3.0 3.0 0.00 0.00 0.62 75 1011.1
20260506162749 55 8 2.0 3.0 0.00 0.00 0.62 75 1011.1
20260506162115 56 90 2.0 2.0 0.00 0.00 0.62 73 1011.1
20260506161546 55 41 0.0 0.0 0.00 0.00 0.62 74 1011.1
20260506160934 55 17 2.0 3.0 0.00 0.00 0.62 75 1011.1
20260506160351 55 23 1.0 2.0 0.00 0.00 0.62 77 1011.1
20260506155712 56 167 0.0 1.0 0.00 0.00 0.62 78 1011.5
20260506155128 54 32 1.0 2.0 0.00 0.00 0.62 79 1011.1
20260506154542 54 270 5.0 6.0 0.00 0.00 0.62 80 1011.5
20260506153930 54 268 4.0 6.0 0.00 0.00 0.62 80 1011.1
20260506153334 54 46 0.0 1.0 0.00 0.00 0.62 82 1011.1
20260506152733 53 56 1.0 2.0 0.00 0.00 0.62 82 1011.1
20260506151533 52 94 0.0 0.0 0.00 0.00 0.62 83 1010.8
20260506150933 52 171 2.0 2.0 0.00 0.00 0.62 86 1010.8
20260506150311 52 33 1.0 1.0 0.00 0.00 0.62 88 1010.8
20260506145750 52 79 0.0 0.0 0.00 0.00 0.62 90 1010.8
20260506145133 51 307 2.0 3.0 0.00 0.00 0.62 91 1010.1
20260506144538 51 14 3.0 3.0 0.00 0.00 0.62 92 1010.4
20260506143929 50 52 1.0 1.0 0.00 0.00 0.62 93 1010.4
20260506143317 50 93 1.0 1.0 0.00 0.00 0.62 93 1010.4
20260506142716 50 15 2.0 3.0 0.00 0.00 0.62 94 1010.4
20260506142117 49 26 2.0 2.0 0.00 0.00 0.62 95 1010.1
20260506141523 50 197 3.0 4.0 0.00 0.00 0.62 97 1010.4
20260506140935 49 68 0.0 0.0 0.00 0.00 0.62 96 1010.1
20260506140343 49 110 1.0 1.0 0.00 0.00 0.62 97 1010.1
20260506135734 50 84 1.0 1.0 0.00 0.00 0.62 98 1010.1
20260506135139 49 60 0.0 1.0 0.00 0.00 0.62 98 1010.1
20260506134512 49 61 1.0 1.0 0.00 0.00 0.62 99 1010.1
20260506133920 50 64 0.0 1.0 0.00 0.00 0.62 99 1009.8
20260506133350 49 94 0.0 0.0 0.00 0.00 0.62 99 1009.4
20260506132744 49 94 0.0 0.0 0.00 0.00 0.62 99 1009.4
20260506132120 49 70 1.0 1.0 0.00 0.00 0.62 99 1009.4
20260506131514 49 90 0.0 0.0 0.00 0.00 0.62 99 1009.4
20260506130920 48 130 0.0 0.0 0.00 0.00 0.62 99 1009.4
20260506125727 48 183 2.0 3.0 0.00 0.00 0.62 99 1009.1
20260506125146 48 84 2.0 3.0 0.00 0.00 0.62 99 1009.1
20260506124511 48 4 2.0 3.0 0.00 0.00 0.62 99 1009.4
20260506123932 49 347 3.0 3.0 0.00 0.00 0.62 99 1009.4
20260506123320 49 301 3.0 4.0 0.00 0.00 0.61 99 1009.4
20260506122715 49 90 1.0 1.0 0.00 0.00 0.61 99 1009.1
20260506122149 50 238 2.0 2.0 0.00 0.00 0.61 99 1008.8
20260506121518 50 70 0.0 0.0 0.00 0.00 0.61 99 1008.4
20260506120310 50 127 0.0 0.0 0.00 0.00 0.61 99 1008.1
20260506115715 50 225 2.0 2.0 0.00 0.00 0.61 99 1007.7
20260506115122 51 301 2.0 2.0 0.00 0.00 0.61 99 1007.7
20260506114533 51 47 1.0 1.0 0.00 0.00 0.61 99 1007.4
20260506113948 51 318 0.0 0.0 0.00 0.00 0.61 99 1007.4
20260506112733 51 82 0.0 0.0 0.00 0.00 0.61 99 1007.4
20260506111515 51 96 0.0 0.0 0.00 0.00 0.61 99 1007.4
20260506110913 51 44 2.0 2.0 0.00 0.00 0.60 99 1007.1
20260506105711 51 69 0.0 0.0 0.00 0.00 0.60 99 1007.1
20260506105146 51 235 1.0 1.0 0.00 0.00 0.60 99 1007.1
20260506103921 51 325 2.0 4.0 0.00 0.00 0.60 99 1006.7
20260506103351 52 353 5.0 6.0 0.00 0.00 0.59 99 1007.1
20260506102708 52 331 3.0 3.0 0.00 0.00 0.59 99 1006.7
20260506102109 53 255 1.0 2.0 0.00 0.00 0.59 99 1006.7
20260506100950 54 112 0.0 1.0 0.00 0.00 0.59 99 1006.0
20260506095711 54 64 1.0 2.0 0.00 0.00 0.57 99 1006.0
20260506095149 55 30 2.0 3.0 0.00 0.00 0.57 99 1006.0
20260506094538 57 317 2.0 3.0 0.00 0.00 0.57 99 1006.0
20260506093321 58 105 0.0 0.0 0.00 0.00 0.57 99 1005.7
20260506092747 58 117 0.0 0.0 0.00 0.00 0.57 99 1005.7
20260506092113 58 122 0.0 0.0 0.00 0.00 0.57 99 1005.7
20260506090323 58 180 2.0 2.0 0.00 0.00 0.56 99 1005.7
20260506085736 58 145 0.0 0.0 0.00 0.00 0.56 99 1005.7
20260506085114 58 62 0.0 1.0 0.00 0.00 0.56 99 1005.7
20260506083926 58 102 0.0 0.0 0.00 0.00 0.55 99 1006.0
20260506083337 58 145 1.0 1.0 0.00 0.00 0.52 99 1006.0
20260506082737 58 107 0.0 0.0 0.00 0.00 0.50 99 1005.7
20260506082142 58 141 0.0 1.0 0.00 0.00 0.48 99 1006.0
20260506081514 58 309 2.0 3.0 0.00 0.00 0.47 99 1006.0
20260506080930 58 103 1.0 1.0 0.00 0.00 0.46 99 1005.7
20260506080318 58 97 0.0 0.0 0.00 0.00 0.46 99 1005.7
20260506073309 58 119 0.0 0.0 0.00 0.00 0.37 99 1005.7
20260506072709 58 170 0.0 1.0 0.00 0.00 0.37 99 1005.7
20260506072143 58 168 0.0 1.0 0.00 0.00 0.36 99 1005.7
20260506071550 58 134 0.0 0.0 0.00 0.00 0.35 99 1005.7
20260506070907 58 41 1.0 1.0 0.00 0.00 0.32 99 1005.7
20260506070330 58 186 0.0 0.0 0.00 0.00 0.28 99 1006.0
20260506062127 58 113 0.0 0.0 0.00 0.00 0.14 99 1006.4
20260506061510 58 77 0.0 0.0 0.00 0.00 0.12 99 1006.4
20260506060342 58 114 0.0 0.0 0.00 0.00 0.08 99 1006.4
20260506050949 58 111 0.0 0.0 0.00 0.00 0.04 99 1006.7
20260506050336 58 117 0.0 0.0 0.00 0.00 0.03 99 1007.1
20260506044516 58 101 0.0 0.0 0.00 0.00 0.03 99 1007.1
20260506043920 58 122 0.0 0.0 0.00 0.00 0.02 99 1007.1
20260506042725 58 133 0.0 0.0 0.00 0.00 0.02 99 1006.7
20260506042128 58 106 0.0 0.0 0.00 0.00 0.01 99 1006.7
20260506041543 58 116 0.0 0.0 0.00 0.00 0.01 99 1007.4
20260506040349 58 117 0.0 0.0 0.00 0.00 0.07 99 1007.4
20260506035712 59 110 0.0 0.0 0.00 0.00 0.07 99 1007.7
20260506035141 59 110 0.0 0.0 0.00 0.00 0.07 99 1008.1
20260506033948 59 119 0.0 0.0 0.00 0.00 0.04 99 1008.1
20260506033317 59 119 0.0 0.0 0.00 0.00 0.03 99 1008.1
20260506032715 59 119 0.0 0.0 0.00 0.00 0.03 98 1008.1
20260506032147 59 118 0.0 0.0 0.00 0.00 0.03 98 1008.1
20260506031550 59 112 0.0 0.0 0.00 0.00 0.02 98 1008.1
20260506030914 59 112 0.0 0.0 0.00 0.00 0.02 98 1008.1